Weather History for LKKV - March, 2013

Change the Weather History Date:

Friday, March 15, 2013

  Actual Average Record
Temperature  
Mean Temperature 18 °F -  
Max Temperature 26 °F - - ()
Min Temperature 10 °F - - ()
Degree Days  
Heating Degree Days 47    
Moisture  
Dew Point 13 °F    
Average Humidity 73    
Maximum Humidity 93    
Minimum Humidity 54    
Precipitation  
Precipitation 0.00 in - - ()
Sea Level Pressure  
Sea Level Pressure 29.85 in    
Wind  
Wind Speed 4 mph ()    
Max Wind Speed 10 mph    
Max Gust Speed -    
Visibility 5.1 miles    
Events Snow    
T = Trace of Precipitation, MM = Missing Value Source: Averaged Metar Reports

Daily Weather History Graph

Daily Weather History Graph

Search for Another Location

Airport or City:

Trip Planner

Search our weather history database for the weather conditions in past years. The results will help you decide how hot, cold, wet, or windy it might be!

Date:

Astronomy

Mar. 15, 2013 Rise Set
Actual Time 6:22 AM CET 6:13 PM CET
Civil Twilight 5:49 AM CET 6:45 PM CET
Nautical Twilight 5:11 AM CET 7:23 PM CET
Astronomical Twilight 4:33 AM CET 8:02 PM CET
Moon 7:36 AM CET (3/15) 10:39 PM CET (3/15)
Length of Visible Light 12h 55m
Length of Day
11h 51m
Waxing Crescent, 14% of the Moon is Illuminated
Mar 15
Waxing Crescent
Mar 19
First Quarter
Mar 27
Full
Apr 3
Last Quarter
Apr 10
New

Hourly Weather History & Observations

Time (CET) Temp. Windchill Dew Point Humidity Pressure Visibility Wind Dir Wind Speed Gust Speed Precip Events Conditions
12:00 AM 17.6 °F - 14.0 °F 86% 29.74 in 6.2 mi Variable 2.3 mph - N/A   Scattered Clouds
1:00 AM 15.8 °F - 14.0 °F 93% 29.74 in 6.2 mi Variable 2.3 mph - N/A   Scattered Clouds
2:00 AM 10.4 °F - 6.8 °F 85% 29.74 in 5.0 mi ESE 2.3 mph - N/A   Scattered Clouds
3:00 AM 10.4 °F - 8.6 °F 92% 29.74 in 5.0 mi Calm Calm - N/A   Unknown
4:00 AM 10.4 °F - 8.6 °F 92% 29.74 in 3.7 mi East 2.3 mph - N/A   Partly Cloudy
5:00 AM 10.4 °F 4.0 °F 8.6 °F 92% 29.77 in 3.7 mi East 3.5 mph - N/A Snow Light Snow Showers
6:00 AM 12.2 °F - 10.4 °F 92% 29.77 in 5.0 mi Calm Calm - N/A Snow Light Snow Showers
7:00 AM 10.4 °F - 8.6 °F 92% 29.80 in 4.3 mi Calm Calm - N/A   Partly Cloudy
7:30 AM 12.2 °F - 10.4 °F 92% 29.80 in 3.7 mi Variable 2.3 mph - N/A   Unknown
8:00 AM 15.8 °F - 12.2 °F 86% 29.80 in 3.1 mi Variable 1.2 mph - N/A   Mist
8:30 AM 19.4 °F - 14.0 °F 80% 29.83 in 4.3 mi Variable 2.3 mph - N/A   Unknown
9:00 AM 24.8 °F - 15.8 °F 69% 29.83 in - Variable 1.2 mph - N/A   Clear
9:30 AM 21.2 °F 16.4 °F 14.0 °F 74% 29.83 in 6.2 mi West 3.5 mph - N/A   Partly Cloudy
10:00 AM 23.0 °F 18.4 °F 15.8 °F 74% 29.83 in 6.2 mi WNW 3.5 mph - N/A   Mostly Cloudy
10:10 AM 23.0 °F 15.8 °F 15.8 °F 74% 29.86 in 4.3 mi West 5.8 mph - N/A Snow Light Snow Showers
10:21 AM 23.0 °F 14.7 °F 15.8 °F 74% 29.86 in 1.9 mi West 6.9 mph - N/A Snow Light Snow Showers
10:30 AM 23.0 °F 15.8 °F 15.8 °F 74% 29.86 in 1.9 mi WNW 5.8 mph - N/A Snow Light Snow Showers
10:32 AM 23.0 °F 15.8 °F 15.8 °F 74% 29.86 in 0.7 mi WNW 5.8 mph - N/A Snow Light Snow Showers
10:48 AM 23.0 °F 15.8 °F 17.6 °F 80% 29.86 in 3.1 mi NW 5.8 mph - N/A Snow Light Snow Showers
11:00 AM 24.8 °F 16.9 °F 17.6 °F 74% 29.86 in 5.0 mi WNW 6.9 mph - N/A   Mostly Cloudy
11:07 AM 24.8 °F 16.1 °F 15.8 °F 69% 29.86 in 3.1 mi NW 8.1 mph - N/A Snow Light Snow Showers
11:13 AM 24.8 °F 16.9 °F 15.8 °F 69% 29.86 in 1.2 mi WNW 6.9 mph - N/A Snow Light Snow Showers
11:22 AM 23.0 °F 15.8 °F 17.6 °F 80% 29.86 in 1.9 mi NW 5.8 mph - N/A Snow Light Snow Showers
11:30 AM 23.0 °F 17.0 °F 19.4 °F 86% 29.86 in 6.2 mi NNW 4.6 mph - N/A   Mostly Cloudy
12:00 PM 26.6 °F 19.1 °F 14.0 °F 59% 29.86 in 6.2 mi WNW 6.9 mph - N/A   Scattered Clouds
12:30 PM 26.6 °F 19.1 °F 12.2 °F 55% 29.86 in 6.2 mi NNW 6.9 mph - N/A   Scattered Clouds
12:47 PM 26.6 °F 17.5 °F 12.2 °F 55% 29.86 in 6.2 mi WNW 9.2 mph - N/A Snow Light Snow Showers
1:00 PM 24.8 °F 15.3 °F 12.2 °F 59% 29.86 in 6.2 mi WNW 9.2 mph - N/A   Mostly Cloudy
1:30 PM 24.8 °F 16.9 °F 10.4 °F 54% 29.86 in 6.2 mi NNW 6.9 mph - N/A   Mostly Cloudy
2:00 PM 24.8 °F 14.6 °F 12.2 °F 59% 29.86 in 6.2 mi NNW 10.4 mph - N/A   Scattered Clouds
2:30 PM 24.8 °F 14.6 °F 14.0 °F 64% 29.86 in 6.2 mi NNW 10.4 mph - N/A   Mostly Cloudy
2:49 PM 24.8 °F 15.3 °F 14.0 °F 64% 29.86 in 6.2 mi NNW 9.2 mph - N/A Snow Light Snow Showers
3:00 PM 24.8 °F 15.3 °F 14.0 °F 64% 29.86 in 6.2 mi NNW 9.2 mph - N/A   Scattered Clouds
3:30 PM 24.8 °F 15.3 °F 10.4 °F 54% 29.86 in 6.2 mi WNW 9.2 mph - N/A   Scattered Clouds
4:00 PM 24.8 °F 16.1 °F 10.4 °F 54% 29.89 in 6.2 mi WNW 8.1 mph - N/A   Scattered Clouds
4:30 PM 23.0 °F 15.8 °F 12.2 °F 63% 29.89 in 6.2 mi North 5.8 mph - N/A   Partly Cloudy
5:00 PM 23.0 °F 18.4 °F 12.2 °F 63% 29.89 in 6.2 mi NNW 3.5 mph - N/A   Partly Cloudy
5:30 PM 24.8 °F 20.5 °F 12.2 °F 59% 29.89 in 6.2 mi NNW 3.5 mph - N/A   Partly Cloudy
6:00 PM 23.0 °F 14.7 °F 10.4 °F 59% 29.89 in 6.2 mi NW 6.9 mph - N/A   Partly Cloudy
6:30 PM 21.2 °F 13.6 °F 10.4 °F 63% 29.92 in 6.2 mi NW 5.8 mph - N/A   Partly Cloudy
7:00 PM 21.2 °F - 10.4 °F 63% 29.92 in 6.2 mi North 2.3 mph - N/A   Partly Cloudy
7:30 PM 19.4 °F - 10.4 °F 68% 29.95 in 6.2 mi NNW 2.3 mph - N/A   Partly Cloudy
8:00 PM 19.4 °F - 10.4 °F 68% 29.95 in 6.2 mi North 2.3 mph - N/A   Partly Cloudy
9:00 PM 15.8 °F - 10.4 °F 79% 29.95 in 6.2 mi Variable 1.2 mph - N/A   Partly Cloudy
10:00 PM 14.0 °F 8.2 °F 10.4 °F 86% 29.98 in 6.2 mi East 3.5 mph - N/A   Partly Cloudy
11:00 PM 12.2 °F - 8.6 °F 85% 29.98 in 6.2 mi East 2.3 mph - N/A   Partly Cloudy